User: anonymous   Login
Location: Dackenheim
(49.5215°N, 8.1854°E)
Time: 07:27:56
(UTC+00:00)
Language:

UWE-3 - Orbit

View from above orbital plane
View from above orbital plane
View from above satellite
View from above satellite

Ground track
Ground track

The orbit is defined by the following mean orbital elements,

1 39446U          26069.86664325 +.00000000 +00000-0 +54067-3 0 00007
2 39446  97.8589  25.4028 0048372 288.0756  71.5199 14.96195831    04
Epoch (UTC): 10 March 2026 20:47:57
Eccentricity: 0.0048372
inclination: 97.8589°
perigee height: 545 km
apogee height: 612 km
right ascension of ascending node: 25.4028°
argument of perigee: 288.0756°
revolutions per day: 14.96195831
mean anomaly at epoch: 71.5199°

The dashed part of the orbit path shows where the satellite is in the earth's shadow,  

DLR